GW4127 Weather Reports


time (UTC)temp
C
wind
direction
speed
KPH
gust
KPH
rain 1hr
cm
rain 24hr
cm
rain mn
cm
humidity
%
barometer
mb
20260506174514 13 301 3.2 9.7 0.00 0.03 0.03 72 1015.8
20260506173000 13 301 4.8 12.9 0.00 0.03 0.03 66 1015.8
20260506171551 13 301 4.8 11.3 0.00 0.03 0.03 63 1015.6
20260506170041 14 301 6.4 12.9 0.00 0.03 0.03 61 1015.6
20260506164533 13 301 4.8 12.9 0.00 0.03 0.03 63 1015.6
20260506163019 14 301 4.8 16.1 0.00 0.03 0.03 63 1015.6
20260506161509 13 301 6.4 14.5 0.00 0.03 0.03 62 1015.6
20260506160057 15 301 4.8 16.1 0.00 0.46 0.03 61 1015.6
20260506154548 15 301 4.8 14.5 0.00 0.46 0.03 62 1015.6
20260506153027 15 301 6.4 19.3 0.00 0.46 0.03 59 1015.5
20260506151517 15 301 4.8 14.5 0.00 0.46 0.03 61 1015.6
20260506150009 14 301 6.4 16.1 0.00 0.84 0.03 62 1015.8
20260506144507 15 301 4.8 16.1 0.00 0.84 0.03 62 1015.8
20260506143047 14 301 6.4 16.1 0.00 0.84 0.03 63 1016.0
20260506141537 13 301 6.4 19.3 0.00 0.84 0.03 61 1016.1
20260506140024 15 301 6.4 19.3 0.00 0.84 0.03 62 1016.2
20260506134515 15 300 8.0 22.5 0.00 0.84 0.03 58 1016.3
20260506133053 15 301 4.8 17.7 0.00 0.84 0.03 60 1016.2
20260506131527 14 300 6.4 17.7 0.00 0.84 0.03 59 1016.4
20260506130020 14 300 1.6 12.9 0.00 0.84 0.03 64 1016.5
20260506124508 14 301 4.8 20.9 0.00 0.84 0.03 65 1016.4
20260506123057 13 301 9.7 19.3 0.00 0.84 0.03 62 1016.5
20260506121539 13 301 3.2 19.3 0.00 0.84 0.03 67 1016.5
20260506120028 12 300 8.0 20.9 0.00 0.84 0.03 68 1016.5
20260506114517 12 300 4.8 22.5 0.00 0.84 0.03 67 1016.5
20260506113005 12 301 8.0 19.3 0.00 0.84 0.03 66 1016.6
20260506111558 12 300 4.8 19.3 0.00 0.84 0.03 66 1016.6
20260506110043 12 300 4.8 30.6 0.00 0.84 0.03 68 1016.7
20260506104530 12 301 8.0 16.1 0.00 0.84 0.03 69 1016.6
20260506103018 12 301 4.8 19.3 0.00 0.84 0.03 70 1016.7
20260506101503 12 301 8.0 20.9 0.00 0.84 0.03 71 1016.6
20260506100051 11 301 6.4 17.7 0.00 0.84 0.03 71 1016.7
20260506094536 11 301 8.0 16.1 0.00 0.84 0.03 70 1016.9
20260506093023 10 301 9.7 22.5 0.00 0.84 0.03 72 1017.0
20260506091505 10 301 6.4 19.3 0.00 0.84 0.03 75 1016.7
20260506090040 10 301 8.0 17.7 0.00 0.84 0.03 77 1016.6
20260506084534 9 301 8.0 27.4 0.00 0.84 0.03 78 1016.4
20260506083012 8 301 9.7 22.5 0.00 0.84 0.03 79 1016.3
20260506081558 8 301 11.3 20.9 0.00 0.84 0.03 81 1016.2
20260506080103 8 301 12.9 27.4 0.00 0.84 0.03 81 1016.0
20260506073023 7 301 11.3 22.5 0.00 0.84 0.03 84 1015.9
20260506071517 7 301 8.0 16.1 0.00 0.84 0.03 87 1015.7
20260506061529 5 301 11.3 25.7 0.00 0.84 0.03 90 1015.6
20260506044535 5 301 11.3 19.3 0.00 0.84 0.03 88 1015.2
20260506043017 5 302 8.0 22.5 0.00 0.84 0.03 86 1015.1
20260506041503 6 302 8.0 22.5 0.00 0.84 0.03 86 1014.9
20260506040050 5 302 9.7 20.9 0.00 0.84 0.03 87 1015.0
20260506034549 5 302 11.3 22.5 0.00 0.84 0.03 88 1015.0
20260506033020 6 302 8.0 22.5 0.00 0.84 0.03 87 1015.0
20260506031513 6 302 9.7 19.3 0.00 0.84 0.03 88 1015.0
20260506030103 6 302 11.3 20.9 0.00 0.84 0.03 86 1015.0
20260506024545 6 302 6.4 16.1 0.00 0.84 0.03 84 1014.9
20260506023025 7 302 9.7 17.7 0.00 0.84 0.03 80 1014.8
20260506021517 7 302 8.0 19.3 0.00 0.84 0.03 81 1015.0
20260506020008 6 302 9.7 17.7 0.00 0.84 0.03 83 1015.0
20260506014557 6 302 3.2 19.3 0.00 0.84 0.03 86 1015.1
20260506013024 6 302 8.0 16.1 0.00 0.84 0.03 86 1015.0
20260506011534 7 302 6.4 17.7 0.00 0.84 0.03 84 1015.1
20260506010120 7 302 9.7 19.3 0.00 0.84 0.03 84 1015.1
20260506004548 7 302 3.2 16.1 0.00 0.84 0.03 83 1015.6
20260506003045 8 302 1.6 11.3 0.00 0.84 0.03 80 1015.8
20260506001536 8 302 11.3 22.5 0.00 0.84 0.03 79 1015.8
20260506000020 8 302 6.4 17.7 0.00 0.84 0.03 78 1015.8
20260505234509 8 302 3.2 9.7 0.00 0.84 0.03 77 1015.8
20260505233056 8 302 6.4 19.3 0.00 0.84 0.03 76 1015.9
20260505231546 8 302 6.4 14.5 0.03 0.84 0.03 74 1015.6
20260505230036 8 302 6.4 16.1 0.03 0.84 0.03 74 1015.6
20260505224524 8 302 3.2 20.9 0.03 0.84 0.03 75 1015.6
20260505223017 8 302 9.7 22.5 0.03 0.84 0.03 75 1015.6
20260505221535 8 302 4.8 14.5 0.00 0.81 0.00 81 1015.5
20260505220041 7 302 4.8 16.1 0.00 0.81 0.81 89 1015.9
20260505214516 7 302 4.8 25.7 0.00 0.81 0.81 91 1016.5
20260505213053 8 301 6.4 17.7 0.00 0.81 0.81 95 1016.7
20260505211547 8 301 3.2 9.7 0.00 0.81 0.81 96 1016.6
20260505210028 8 301 4.8 20.9 0.00 0.81 0.81 95 1016.4
20260505204519 8 301 4.8 17.7 0.00 0.81 0.81 94 1016.2
20260505203010 8 301 6.4 17.7 0.00 0.81 0.81 94 1016.0
20260505201559 9 301 6.4 16.1 0.00 0.81 0.81 92 1015.7
20260505201501 9 301 9.7 16.1 0.00 0.81 0.81 92 1015.7
20260505200055 9 301 4.8 12.9 0.00 1.04 0.81 85 1015.4
20260505194556 9 301 4.8 12.9 0.00 1.04 0.81 85 1015.4
20260505193034 8 301 6.4 16.1 0.00 1.04 0.81 84 1015.1
20260505190006 8 301 3.2 8.0 0.00 1.65 0.81 86 1014.8
20260505184557 8 301 1.6 3.2 0.00 1.65 0.81 89 1014.7
20260505183052 8 301 0.0 6.4 0.00 1.65 0.81 88 1014.8
20260505181535 8 301 4.8 11.3 0.00 1.65 0.81 91 1014.7
20260505180025 8 301 0.0 6.4 0.00 1.65 0.81 94 1015.2